Weather History for Northeast Philadelphia, PA

Change the Weather History Date:

Sunday, February 3, 2013

  Actual Average Record
Temperature  
Mean Temperature 27 °F -  
Max Temperature 30 °F 39 °F 63 °F (2006)
Min Temperature 24 °F 24 °F 15 °F (2000)
Degree Days  
Heating Degree Days 38    
Moisture  
Dew Point 21 °F    
Average Humidity 81    
Maximum Humidity 93    
Minimum Humidity 64    
Precipitation  
Precipitation 0.03 in - - ()
Sea Level Pressure  
Sea Level Pressure 29.93 in    
Wind  
Wind Speed 4 mph (North)    
Max Wind Speed 17 mph    
Max Gust Speed 24 mph    
Visibility 6 miles    
Events Snow    
Averages and records for this station are not official NWS values.
T = Trace of Precipitation, MM = Missing Value Source: NWS Daily Summary

Daily Weather History Graph

Daily Weather History Graph

Search for Another Location

Airport:

Trip Planner

Search our weather history database for the weather conditions in past years. The results will help you decide how hot, cold, wet, or windy it might be!

Date:

Astronomy

Feb. 03, 2013 Rise Set
Actual Time 7:06 AM EST 5:21 PM EST
Civil Twilight 6:38 AM EST 5:50 PM EST
Nautical Twilight 6:05 AM EST 6:22 PM EST
Astronomical Twilight 5:33 AM EST 6:54 PM EST
Moon 12:31 AM EST (2/3) 10:57 AM EST (2/3)
Length of Visible Light 11h 12m
Length of Day
10h 15m
Waning Gibbous, 49% of the Moon is Illuminated
Feb 3
Waning Gibbous
Feb 10
New
Feb 17
First Quarter
Feb 25
Full
Mar 4
Last Quarter

Hourly Weather History & Observations

Time (EST) Temp. Windchill Dew Point Humidity Pressure Visibility Wind Dir Wind Speed Gust Speed Precip Events Conditions
12:08 AM 24.8 °F 20.5 °F 21.2 °F 86% 30.06 in 4.0 mi SSE 3.5 mph - 0.00 in Snow Light Snow
12:39 AM 24.8 °F - 23.0 °F 93% 30.04 in 2.5 mi Calm Calm - 0.00 in Snow Light Snow
12:48 AM 24.8 °F 20.5 °F 23.0 °F 93% 30.04 in 3.0 mi SE 3.5 mph - 0.00 in Snow Light Snow
12:49 AM 25.0 °F 20.7 °F 23.0 °F 92% 30.05 in 3.0 mi SE 3.5 mph - 0.00 in Snow Light Snow
1:03 AM 24.8 °F - 23.0 °F 93% 30.04 in 3.0 mi Calm Calm - 0.01 in Snow Light Snow
1:54 AM 25.0 °F - 23.0 °F 92% 30.02 in 4.0 mi Calm Calm - 0.01 in Snow Light Snow
2:30 AM 24.8 °F - 23.0 °F 93% 30.00 in 7.0 mi Calm Calm - 0.00 in   Overcast
2:40 AM 24.8 °F 20.5 °F 23.0 °F 93% 30.00 in 8.0 mi NE 3.5 mph - 0.00 in   Overcast
2:54 AM 25.0 °F 20.7 °F 23.0 °F 92% 30.00 in 9.0 mi NE 3.5 mph - 0.00 in   Overcast
3:09 AM 24.8 °F 19.1 °F 23.0 °F 93% 29.99 in 8.0 mi NE 4.6 mph - N/A   Overcast
3:54 AM 25.0 °F 19.3 °F 23.0 °F 92% 29.97 in 8.0 mi NE 4.6 mph - 0.00 in   Overcast
4:54 AM 25.0 °F 20.7 °F 23.0 °F 92% 29.96 in - ENE 3.5 mph - N/A   Overcast
5:43 AM 24.8 °F 20.5 °F 21.2 °F 86% 29.95 in - NNE 3.5 mph - N/A   Overcast
5:54 AM 25.0 °F - 21.9 °F 88% 29.96 in - Calm Calm - N/A   Overcast
6:54 AM 24.1 °F 19.7 °F 21.9 °F 91% 29.97 in - NNE 3.5 mph - N/A   Overcast
7:54 AM 25.0 °F 16.3 °F 21.0 °F 85% 29.98 in - NE 8.1 mph - N/A   Overcast
8:19 AM 24.8 °F 17.9 °F 21.2 °F 86% 29.97 in - ENE 5.8 mph - N/A   Overcast
8:54 AM 25.0 °F 17.1 °F 19.9 °F 81% 29.98 in - NNE 6.9 mph - N/A   Overcast
9:15 AM 24.8 °F 19.1 °F 19.4 °F 80% 29.97 in - North 4.6 mph - N/A   Overcast
9:54 AM 26.1 °F 20.5 °F 19.0 °F 75% 29.96 in - NNE 4.6 mph - N/A   Overcast
10:54 AM 28.0 °F - 19.9 °F 72% 29.94 in - Calm Calm - N/A   Overcast
11:06 AM 28.4 °F 23.3 °F 21.2 °F 74% 29.93 in - North 4.6 mph - N/A   Mostly Cloudy
11:54 AM 28.0 °F 24.2 °F 19.9 °F 72% 29.91 in - Variable 3.5 mph - N/A   Partly Cloudy
12:36 PM 28.4 °F 24.6 °F 19.4 °F 69% 29.88 in 10.0 mi NNE 3.5 mph - N/A   Mostly Cloudy
12:54 PM 28.0 °F 22.8 °F 19.9 °F 72% 29.88 in 10.0 mi Variable 4.6 mph - N/A   Overcast
1:32 PM 28.4 °F - 19.4 °F 69% 29.86 in 10.0 mi Calm Calm - N/A   Scattered Clouds
1:54 PM 30.0 °F 25.2 °F 21.0 °F 69% 29.86 in 10.0 mi NNW 4.6 mph - N/A   Partly Cloudy
2:54 PM 30.9 °F 24.3 °F 21.0 °F 67% 29.85 in 10.0 mi West 6.9 mph - N/A   Clear
3:54 PM 30.0 °F 24.1 °F 19.9 °F 66% 29.84 in 10.0 mi WNW 5.8 mph - N/A   Mostly Cloudy
4:54 PM 28.9 °F 23.9 °F 18.0 °F 64% 29.84 in 10.0 mi WNW 4.6 mph - N/A   Partly Cloudy
5:54 PM 28.0 °F - 18.0 °F 66% 29.85 in 10.0 mi Calm Calm - N/A   Clear
6:54 PM 28.0 °F - 19.0 °F 69% 29.86 in 10.0 mi Calm Calm - N/A   Clear
7:54 PM 25.0 °F - 19.0 °F 78% 29.86 in 10.0 mi Calm Calm - N/A   Scattered Clouds
8:54 PM 26.1 °F - 19.9 °F 78% 29.86 in 9.0 mi Calm Calm - N/A   Overcast
9:54 PM 28.0 °F 24.2 °F 21.9 °F 78% 29.86 in 8.0 mi West 3.5 mph - N/A   Overcast
10:38 PM 28.4 °F 20.4 °F 23.0 °F 80% 29.86 in 1.5 mi NNW 8.1 mph - N/A Snow Light Snow
10:41 PM 28.4 °F 20.4 °F 24.8 °F 86% 29.86 in 0.8 mi NW 8.1 mph - 0.00 in Snow Light Snow
10:54 PM 27.0 °F 19.5 °F 25.0 °F 92% 29.87 in 1.0 mi West 6.9 mph - 0.01 in Snow Light Snow
11:05 PM 28.4 °F 23.3 °F 24.8 °F 86% 29.87 in 1.0 mi West 4.6 mph - N/A Snow Light Snow
11:25 PM 26.6 °F 18.2 °F 24.8 °F 93% 29.88 in 0.8 mi WNW 8.1 mph - 0.01 in Snow Light Snow
11:38 PM 28.4 °F 17.5 °F 21.2 °F 74% 29.87 in 2.0 mi WNW 13.8 mph 24.2 mph 0.01 in Snow Light Snow
11:44 PM 28.4 °F 16.6 °F 19.4 °F 69% 29.87 in 7.0 mi WNW 16.1 mph 21.9 mph 0.01 in Snow Light Snow
11:54 PM 28.0 °F 15.7 °F 18.0 °F 66% 29.88 in 10.0 mi West 17.3 mph 24.2 mph 0.01 in   Mostly Cloudy